Retour au catalogue

ORBCOMM FM 21

ActifCommunicationsLEO
NORAD 25475·PAYLOAD·🇺🇸 United States

Lancé Sep 23, 1998 depuis Cape Canaveral Space Force Station

Loading…

Prochains Passages (prochaines 24 heures)

TLE

FraisSource: Space-Track

Époque: Sep 14, 2026, 11:43 UTC

1 25475U 98053A   26257.48850905  .00000426  00000-0  18507-3 0  9995
2 25475  45.0076 276.2632 0003218 291.4893  68.5612 14.38290628462637

Suivez ORBCOMM FM 21 en temps réel avec AllMySat

Download on the App Store